Fort Morgan, CO

3:17 PM MST on January 21, 2017 (GMT -0700)
Fort Morgan

Weather History for KFMM - November, 2012

Change the Weather History Date:

Saturday, November 24, 2012

  Actual Average (KAKO) Record (KAKO)
Temperature  
Mean Temperature 36 °F -  
Max Temperature 52 °F 46 °F 72 °F (1990)
Min Temperature 21 °F 21 °F -6 °F (1993)
Degree Days  
Heating Degree Days 28    
Moisture  
Dew Point 21 °F    
Average Humidity 56    
Maximum Humidity 91    
Minimum Humidity 30    
Precipitation  
Precipitation 0.00 in - - ()
Sea Level Pressure  
Sea Level Pressure 30.02 in    
Wind  
Wind Speed 9 mph ()    
Max Wind Speed 16 mph    
Max Gust Speed -    
Visibility 10.0 miles    
Events      
Averages and records for this station are not official NWS values.
T = Trace of Precipitation, MM = Missing Value Source: Averaged Metar Reports

Daily Weather History Graph

Daily Weather History Graph

Search for Another Location

Airport or City:

Trip Planner

Search our weather history database for the weather conditions in past years. The results will help you decide how hot, cold, wet, or windy it might be!

Date:

Astronomy

Nov. 24, 2012 Rise Set
Actual Time 6:51 AM MST 4:31 PM MST
Civil Twilight 6:22 AM MST 5:01 PM MST
Nautical Twilight 5:48 AM MST 5:35 PM MST
Astronomical Twilight 5:16 AM MST 6:07 PM MST
Moon 2:18 PM MST (11/24) 3:10 AM MST (11/24)
Length of Visible Light 10h 39m
Length of Day
9h 39m
Waxing Gibbous, 87% of the Moon is Illuminated
Nov 24
Waxing Gibbous
Nov 28
Full
Dec 6
Last Quarter
Dec 13
New
Dec 19
First Quarter

Hourly Weather History & Observations

Time (MST) Temp. Windchill Dew Point Humidity Pressure Visibility Wind Dir Wind Speed Gust Speed Precip Events Conditions
12:15 AM 24.8 °F 11.9 °F 19.9 °F 82% 30.18 in 10.0 mi West 16.1 mph - N/A   Clear
12:35 AM 24.8 °F 15.3 °F 20.3 °F 83% 30.18 in 10.0 mi West 9.2 mph - N/A   Clear
12:55 AM 23.0 °F 15.8 °F 19.4 °F 86% 30.18 in 10.0 mi West 5.8 mph - N/A   Clear
1:15 AM 22.6 °F 11.9 °F 19.6 °F 88% 30.17 in 10.0 mi West 10.4 mph - N/A   Clear
1:35 AM 21.7 °F 10.2 °F 18.9 °F 89% 30.16 in 10.0 mi West 11.5 mph - N/A   Clear
1:55 AM 22.8 °F 12.2 °F 19.4 °F 87% 30.16 in 10.0 mi WSW 10.4 mph - N/A   Clear
2:15 AM 21.7 °F 9.0 °F 19.4 °F 91% 30.15 in 10.0 mi West 13.8 mph - N/A   Clear
2:35 AM 23.0 °F 11.1 °F 19.4 °F 86% 30.14 in 10.0 mi West 12.7 mph - N/A   Clear
2:55 AM 25.3 °F 13.1 °F 19.9 °F 80% 30.13 in 10.0 mi West 15.0 mph - N/A   Clear
3:15 AM 24.8 °F 14.0 °F 19.4 °F 80% 30.13 in 10.0 mi West 11.5 mph - N/A   Clear
3:35 AM 23.9 °F 12.9 °F 19.8 °F 84% 30.12 in 10.0 mi West 11.5 mph - N/A   Clear
3:55 AM 23.7 °F 11.5 °F 19.6 °F 84% 30.11 in 10.0 mi West 13.8 mph - N/A   Clear
4:15 AM 25.0 °F 14.8 °F 19.9 °F 81% 30.10 in 10.0 mi West 10.4 mph - N/A   Clear
4:35 AM 26.2 °F 16.4 °F 20.1 °F 78% 30.10 in 10.0 mi West 10.4 mph - N/A   Clear
4:55 AM 25.5 °F 15.5 °F 19.6 °F 78% 30.10 in 10.0 mi WSW 10.4 mph - N/A   Clear
5:15 AM 22.6 °F 11.9 °F 19.2 °F 87% 30.09 in 10.0 mi WSW 10.4 mph - N/A   Clear
5:35 AM 23.5 °F 13.0 °F 19.6 °F 85% 30.09 in 10.0 mi WNW 10.4 mph - N/A   Clear
5:55 AM 23.9 °F 12.3 °F 19.4 °F 83% 30.09 in 10.0 mi West 12.7 mph - N/A   Clear
6:15 AM 25.7 °F 13.1 °F 20.5 °F 81% 30.07 in 10.0 mi West 16.1 mph - N/A   Clear
6:35 AM 25.3 °F 13.6 °F 20.3 °F 81% 30.07 in 10.0 mi West 13.8 mph - N/A   Clear
6:55 AM 27.1 °F 19.7 °F 21.6 °F 80% 30.07 in 10.0 mi WSW 6.9 mph - N/A   Clear
7:15 AM 27.3 °F 19.1 °F 22.1 °F 81% 30.06 in 10.0 mi WSW 8.1 mph - N/A   Clear
7:35 AM 27.5 °F 18.0 °F 22.6 °F 82% 30.06 in 10.0 mi West 10.4 mph - N/A   Clear
7:55 AM 29.7 °F 26.1 °F 23.4 °F 77% 30.07 in 10.0 mi WNW 3.5 mph - N/A   Clear
8:15 AM 30.9 °F 26.2 °F 24.3 °F 76% 30.06 in 10.0 mi West 4.6 mph - N/A   Clear
8:35 AM 34.0 °F 28.8 °F 26.4 °F 74% 30.06 in 10.0 mi West 5.8 mph - N/A   Clear
8:55 AM 37.2 °F - 24.8 °F 61% 30.06 in 10.0 mi Calm Calm - N/A   Clear
9:15 AM 38.1 °F 32.9 °F 25.2 °F 60% 30.06 in 10.0 mi WSW 6.9 mph - N/A   Clear
9:35 AM 38.5 °F 31.6 °F 24.8 °F 58% 30.05 in 10.0 mi West 10.4 mph - N/A   Clear
9:55 AM 41.2 °F 35.5 °F 24.6 °F 52% 30.05 in 10.0 mi West 9.2 mph - N/A   Clear
10:15 AM 46.8 °F - 21.9 °F 37% 30.04 in 10.0 mi WSW 9.2 mph - N/A   Clear
10:35 AM 48.2 °F - 20.5 °F 33% 30.04 in 10.0 mi West 12.7 mph - N/A   Clear
10:55 AM 49.1 °F - 20.3 °F 32% 30.02 in 10.0 mi WSW 8.1 mph - N/A   Clear
11:15 AM 49.3 °F - 20.3 °F 32% 30.01 in 10.0 mi WSW 9.2 mph - N/A   Clear
11:35 AM 49.1 °F - 20.1 °F 32% 30.00 in 10.0 mi West 10.4 mph - N/A   Clear
11:55 AM 48.7 °F - 20.3 °F 33% 29.98 in 10.0 mi West 10.4 mph - N/A   Clear
12:15 PM 49.1 °F - 21.2 °F 33% 29.97 in 10.0 mi WSW 5.8 mph - N/A   Clear
12:35 PM 49.8 °F - 22.1 °F 34% 29.97 in 10.0 mi WSW 6.9 mph - N/A   Clear
12:55 PM 50.4 °F - 22.1 °F 33% 29.96 in 10.0 mi West 6.9 mph - N/A   Clear
1:15 PM 50.2 °F - 22.3 °F 34% 29.96 in 10.0 mi Calm Calm - N/A   Clear
1:35 PM 50.0 °F - 22.3 °F 34% 29.95 in 10.0 mi WSW 4.6 mph - N/A   Clear
1:55 PM 51.4 °F - 23.0 °F 33% 29.95 in 10.0 mi WSW 4.6 mph - N/A   Clear
2:15 PM 52.7 °F - 22.1 °F 30% 29.94 in 10.0 mi West 4.6 mph - N/A   Clear
2:35 PM 51.3 °F - 23.0 °F 33% 29.93 in 10.0 mi West 6.9 mph - N/A   Clear
2:55 PM 49.6 °F - 22.5 °F 34% 29.93 in 10.0 mi West 8.1 mph - N/A   Clear
3:15 PM 49.8 °F - 22.1 °F 34% 29.93 in 10.0 mi West 9.2 mph - N/A   Clear
3:35 PM 49.1 °F - 22.5 °F 35% 29.92 in 10.0 mi WSW 11.5 mph - N/A   Clear
3:55 PM 47.5 °F - 23.7 °F 39% 29.92 in 10.0 mi West 10.4 mph - N/A   Clear
4:15 PM 45.3 °F 39.7 °F 23.2 °F 42% 29.92 in 10.0 mi West 11.5 mph - N/A   Clear
4:35 PM 44.4 °F 39.5 °F 24.3 °F 45% 29.92 in 10.0 mi West 9.2 mph - N/A   Clear
4:55 PM 43.3 °F 38.6 °F 24.8 °F 48% 29.92 in 10.0 mi West 8.1 mph - N/A   Clear
5:15 PM 42.8 °F 38.0 °F 24.8 °F 49% 29.93 in 10.0 mi West 8.1 mph - N/A   Clear
5:35 PM 43.5 °F 38.9 °F 24.4 °F 47% 29.93 in 10.0 mi West 8.1 mph - N/A   Clear
5:55 PM 41.5 °F 36.4 °F 24.8 °F 51% 29.94 in 10.0 mi West 8.1 mph - N/A   Clear
6:15 PM 43.9 °F 38.8 °F 21.6 °F 41% 29.93 in 10.0 mi NNW 9.2 mph - N/A   Clear
6:35 PM 46.8 °F - 19.8 °F 34% 29.93 in 10.0 mi NNW 11.5 mph - N/A   Clear
6:55 PM 41.5 °F 37.1 °F 23.4 °F 49% 29.94 in 10.0 mi SSW 6.9 mph - N/A   Clear
7:15 PM 40.6 °F 38.6 °F 21.2 °F 46% 29.94 in 10.0 mi NNE 3.5 mph - N/A   Clear
7:35 PM 41.0 °F 36.4 °F 18.9 °F 41% 29.94 in 10.0 mi NW 6.9 mph - N/A   Clear
7:55 PM 38.7 °F 32.9 °F 20.1 °F 47% 29.94 in 10.0 mi NNW 8.1 mph - N/A   Clear
8:15 PM 34.9 °F 30.8 °F 20.7 °F 56% 29.95 in 10.0 mi South 4.6 mph - N/A   Clear
8:35 PM 38.1 °F 32.9 °F 20.1 °F 48% 29.96 in 10.0 mi NE 6.9 mph - N/A   Clear
8:55 PM 39.2 °F 33.6 °F 17.8 °F 42% 29.96 in 10.0 mi NNE 8.1 mph - N/A   Clear
9:15 PM 44.1 °F 40.8 °F 15.8 °F 32% 29.96 in 10.0 mi NE 5.8 mph - N/A   Clear
9:35 PM 40.1 °F - 16.3 °F 38% 29.97 in 10.0 mi Calm Calm - N/A   Clear
9:55 PM 42.3 °F 39.4 °F 15.6 °F 34% 29.96 in 10.0 mi SW 4.6 mph - N/A   Clear
10:15 PM 37.4 °F 33.8 °F 16.3 °F 42% 29.97 in 10.0 mi WSW 4.6 mph - N/A   Clear
10:35 PM 34.2 °F - 19.0 °F 54% 29.97 in 10.0 mi Calm Calm - N/A   Clear
10:55 PM 33.1 °F - 18.1 °F 54% 29.97 in 10.0 mi Calm Calm - N/A   Clear
11:15 PM 38.3 °F - 17.6 °F 43% 29.98 in 10.0 mi Calm Calm - N/A   Clear
11:35 PM 38.5 °F - 16.2 °F 40% 29.97 in 10.0 mi Calm Calm - N/A   Clear
11:55 PM 39.4 °F 35.2 °F 15.6 °F 38% 29.97 in 10.0 mi North 5.8 mph - N/A   Clear